Mount Holly, NJ

7:50 AM EST on November 17, 2019 (GMT -0500)
South Jersey Regional

Weather History for KVAY - October, 2019

Change the Weather History Date:

Monday, October 21, 2019

  Actual Average (WUND) Record (WUND)
Temperature  
Mean Temperature 59 °F -  
Max Temperature 69 °F - - (-1)
Min Temperature 50 °F - - (-1)
Degree Days  
Heating Degree Days 6    
Growing Degree Days 9 (Base 50)    
Moisture  
Dew Point 50 °F    
Average Humidity 81    
Maximum Humidity 93    
Minimum Humidity 50    
Precipitation  
Precipitation 0.00 in - - ()
Sea Level Pressure  
Sea Level Pressure 30.04 in    
Wind  
Wind Speed 7 mph (NNE)    
Max Wind Speed 13 mph    
Max Gust Speed -    
Visibility 10 miles    
Events      
Averages and records for this station are not official NWS values.
T = Trace of Precipitation, MM = Missing Value Source: NWS Daily Summary

Daily Weather History Graph

Daily Weather History Graph

Search for Another Location

Airport or City:

Astronomy

Oct. 21, 2019 Rise Set
Actual Time 7:15 AM EDT 6:11 PM EDT
Civil Twilight 6:48 AM EDT 6:39 PM EDT
Nautical Twilight 6:16 AM EDT 7:10 PM EDT
Astronomical Twilight 5:45 AM EDT 7:41 PM EDT
Moon No Moon Rise 2:31 PM EDT (10/21)
Length of Visible Light 11h 50m
Length of Day
10h 55m
Waning Gibbous, 48% of the Moon is Illuminated
Oct 21
Waning Gibbous
Oct 27
New
Nov 4
First Quarter
Nov 12
Full
Nov 19
Last Quarter

Hourly Weather History & Observations

Time (EDT) Temp. Dew Point Humidity Pressure Visibility Wind Dir Wind Speed Gust Speed Precip Events Conditions
12:54 AM 53.1 °F 51.1 °F 93% 29.94 in 10.0 mi NNE 8.1 mph - N/A   Overcast
1:54 AM 53.1 °F 51.1 °F 93% 29.95 in 8.0 mi North 10.4 mph - N/A   Overcast
2:54 AM 53.1 °F 50.0 °F 89% 29.96 in 10.0 mi North 12.7 mph - N/A   Overcast
3:42 AM 53.1 °F 50.0 °F 89% 29.96 in 10.0 mi North 9.2 mph - N/A   Overcast
3:54 AM 53.1 °F 50.0 °F 89% 29.97 in 10.0 mi North 10.4 mph - N/A   Overcast
4:10 AM 53.1 °F 50.0 °F 89% 29.97 in 10.0 mi North 9.2 mph - N/A   Overcast
4:54 AM 53.1 °F 50.0 °F 89% 29.99 in 10.0 mi North 10.4 mph - N/A   Overcast
5:54 AM 51.1 °F 48.0 °F 89% 30.01 in 10.0 mi North 8.1 mph - N/A   Overcast
6:10 AM 50.0 °F 46.9 °F 89% 30.02 in 10.0 mi North 8.1 mph - N/A   Scattered Clouds
6:54 AM 50.0 °F 46.9 °F 89% 30.04 in 10.0 mi NNW 5.8 mph - N/A   Clear
7:54 AM 50.0 °F 46.9 °F 89% 30.04 in 10.0 mi North 5.8 mph - N/A   Clear
8:54 AM 54.0 °F 48.0 °F 80% 30.06 in 10.0 mi North 6.9 mph - N/A   Clear
9:54 AM 57.0 °F 48.0 °F 72% 30.05 in 10.0 mi NE 6.9 mph - N/A   Clear
10:54 AM 61.0 °F 48.0 °F 62% 30.07 in 10.0 mi NNE 9.2 mph - N/A   Clear
3:54 PM 68.0 °F 48.9 °F 50% 30.05 in 10.0 mi ENE 6.9 mph - N/A   Clear
4:54 PM 68.0 °F 50.0 °F 52% 30.06 in 10.0 mi ENE 3.5 mph - N/A   Clear
5:54 PM 63.0 °F 53.1 °F 70% 30.07 in 10.0 mi ESE 5.8 mph - N/A   Clear
6:54 PM 59.0 °F 51.1 °F 75% 30.07 in 10.0 mi ESE 4.6 mph - N/A   Clear
7:22 PM 59.0 °F 51.1 °F 75% 30.10 in 10.0 mi SE 3.5 mph - N/A   Mostly Cloudy
7:54 PM 59.0 °F 52.0 °F 78% 30.10 in 10.0 mi Calm Calm - N/A   Overcast
8:54 PM 59.0 °F 53.1 °F 81% 30.11 in 10.0 mi Calm Calm - N/A   Overcast
9:54 PM 59.0 °F 52.0 °F 78% 30.12 in 10.0 mi Calm Calm - N/A   Overcast
10:54 PM 57.0 °F 52.0 °F 83% 30.11 in 10.0 mi Calm Calm - N/A   Overcast
11:41 PM 55.0 °F 52.0 °F 89% 30.11 in 10.0 mi Calm Calm - N/A   Overcast
11:51 PM 55.4 °F 51.8 °F 88% 30.11 in 10.0 mi Calm Calm - N/A   Overcast
11:54 PM 55.0 °F 52.0 °F 89% 30.11 in 10.0 mi Calm Calm - N/A   Overcast